EW1044 Weather Reports


time (UTC)temp
C
wind
direction
speed
KPH
gust
KPH
rain 1hr
cm
rain 24hr
cm
rain mn
cm
humidity
%
barometer
mb
20260504234412 26 264 22.5 29.0 0.00 0.00 0.00 49 1002.4
20260504233404 26 263 19.3 32.2 0.00 0.00 0.00 49 1002.4
20260504232403 26 258 19.3 27.4 0.00 0.00 0.00 49 1002.6
20260504231402 26 260 22.5 32.2 0.00 0.00 0.00 49 1002.7
20260504230444 26 263 20.9 37.0 0.00 0.00 0.00 50 1002.8
20260504225414 26 262 24.1 35.4 0.00 0.00 0.00 49 1002.8
20260504223404 26 252 24.1 35.4 0.00 0.00 0.00 48 1002.7
20260504222400 26 261 22.5 35.4 0.00 0.00 0.00 50 1002.9
20260504221443 26 261 19.3 35.4 0.00 0.00 0.00 49 1002.8
20260504215441 26 253 22.5 33.8 0.00 0.00 0.00 50 1002.9
20260504214408 26 287 22.5 38.6 0.00 0.00 0.00 50 1002.9
20260504213403 26 255 25.7 38.6 0.00 0.00 0.00 49 1003.0
20260504212438 26 247 22.5 38.6 0.00 0.00 0.00 48 1002.9
20260504211441 26 243 24.1 33.8 0.00 0.00 0.00 49 1002.9
20260504210433 26 239 22.5 37.0 0.00 0.00 0.00 49 1002.9
20260504205401 26 269 20.9 38.6 0.00 0.00 0.00 50 1003.0
20260504203429 26 253 20.9 35.4 0.00 0.00 0.00 49 1003.2
20260504202403 25 251 24.1 41.8 0.00 0.00 0.00 50 1003.3
20260504200439 26 246 24.1 38.6 0.00 0.00 0.00 52 1003.5
20260504195426 25 243 25.7 33.8 0.00 0.00 0.00 51 1003.6
20260504194422 25 277 20.9 29.0 0.00 0.00 0.00 56 1003.8
20260504193422 25 255 22.5 32.2 0.00 0.00 0.00 51 1003.9
20260504192425 24 247 19.3 32.2 0.00 0.00 0.00 53 1003.9
20260504190400 24 236 19.3 37.0 0.00 0.00 0.00 52 1004.0
20260504184438 24 252 24.1 35.4 0.00 0.00 0.00 52 1003.9
20260504183435 24 254 19.3 29.0 0.00 0.00 0.00 54 1004.0
20260504182446 23 254 19.3 32.2 0.00 0.00 0.00 55 1004.0
20260504180411 23 263 20.9 32.2 0.00 0.00 0.00 53 1004.1
20260504175434 23 246 16.1 32.2 0.00 0.00 0.00 55 1004.2
20260504174436 23 248 19.3 29.0 0.00 0.00 0.00 54 1004.2
20260504173423 23 255 12.9 32.2 0.00 0.00 0.00 53 1004.2
20260504171420 23 256 24.1 33.8 0.00 0.00 0.00 54 1004.6
20260504170425 23 257 24.1 38.6 0.00 0.00 0.00 55 1004.8
20260504160434 21 246 24.1 40.2 0.00 0.00 0.00 56 1005.1
20260504150425 20 256 24.1 43.5 0.00 0.00 0.00 59 1005.2
20260504140432 20 241 20.9 30.6 0.00 0.00 0.00 59 1005.8
20260504130406 18 225 16.1 27.4 0.00 0.00 0.00 60 1006.2
20260504110402 16 217 9.7 16.1 0.00 0.00 0.00 74 1006.6
20260504100414 16 226 8.0 12.9 0.00 0.00 0.00 74 1007.6
20260504080406 14 147 6.4 8.0 0.00 0.00 0.00 82 1007.9
20260504050428 12 5 0.0 0.0 0.00 0.00 0.00 86 1009.3
20260504045415 12 5 0.0 0.0 0.00 0.00 0.00 86 1009.3
20260504044424 12 5 0.0 0.0 0.00 0.00 0.00 86 1009.5
20260504043407 12 5 0.0 0.0 0.00 0.00 0.00 85 1009.6
20260504042438 12 5 0.0 0.0 0.00 0.00 0.00 85 1009.7
20260504041444 12 5 0.0 0.0 0.00 0.00 0.00 84 1009.8
20260504040447 13 5 0.0 0.0 0.00 0.00 0.00 83 1009.8
20260504035410 13 5 0.0 0.0 0.00 0.00 0.00 82 1009.8
20260504034412 13 5 0.0 0.0 0.00 0.00 0.00 81 1009.9
20260504033402 13 5 0.0 0.0 0.00 0.00 0.00 80 1010.0
20260504032413 14 5 0.0 0.0 0.00 0.00 0.00 80 1010.1
20260504031446 14 5 0.0 0.0 0.00 0.00 0.00 79 1010.1
20260504030444 14 5 0.0 0.0 0.00 0.00 0.00 79 1010.0
20260504025430 14 5 0.0 0.0 0.00 0.00 0.00 78 1010.1
20260504024430 15 5 0.0 0.0 0.00 0.00 0.00 77 1010.1
20260504023408 15 5 0.0 0.0 0.00 0.00 0.00 77 1010.0
20260504022426 15 5 0.0 0.0 0.00 0.00 0.00 75 1009.8
20260504015407 16 5 0.0 0.0 0.00 0.00 0.00 72 1009.8
20260504013404 18 5 0.0 0.0 0.00 0.00 0.00 67 1009.7
20260504012403 18 356 0.0 0.0 0.00 0.00 0.00 65 1009.8
20260504011422 20 347 0.0 0.0 0.00 0.00 0.00 62 1009.8
20260504010430 20 347 0.0 0.0 0.00 0.00 0.00 57 1009.8
20260504004414 22 347 0.0 3.2 0.00 0.00 0.00 52 1009.8
20260504003445 22 347 0.0 4.8 0.00 0.00 0.00 51 1009.8
20260504002424 22 347 3.2 8.0 0.00 0.00 0.00 50 1009.9
20260504001447 22 342 4.8 8.0 0.00 0.00 0.00 49 1009.8
20260504000405 22 332 9.7 14.5 0.00 0.00 0.00 51 1010.0
20260503235406 23 309 12.9 22.5 0.00 0.00 0.00 53 1010.0